Miscellaneous Local Product
Issued by NWS Hastings, NE

Home | Current Version | Previous Version | Graphics & Text | Print | Product List | Glossary On
Versions: 1 2 3 4 5 6 7 8 9 10 11 12 13 14 15 16 17 18 19 20 21 22 23 24 25 26 27 28 29 30 31 32 33 34 35 36 37 38 39 40 41 42 43 44 45 46 47 48 49 50
000
AXUS43 KGID 300602
MISGRI

GID CWA HOURLY WEATHER ROUNDUP
NATIONAL WEATHER SERVICE HASTINGS NE
100 AM CDT TUE SEP 30 2014

NOTE: "FAIR" INDICATES FEW OR NO CLOUDS BELOW 12,000 FEET WITH NO
SIGNIFICANT WEATHER AND/OR OBSTRUCTIONS TO VISIBILITY.

...SOUTH CENTRAL NEBRASKA...

CITY           SKY/WX    TMP DP  RH WIND       PRES   REMARKS
GRAND ISLAND   CLOUDY    68  56  65 SE13      29.90F
HASTINGS       CLOUDY    67  54  63 SE12      29.90F
KEARNEY        CLOUDY    68  54  60 SE17      29.88F
ORD            CLOUDY    68  54  60 SE12      29.85F
YORK           MOCLDY    66  57  72 SE9       29.92F
AURORA         MOCLDY    66  56  70 SE10      29.91F
LEXINGTON      LGT RAIN  62  58  84 SW5       29.86R
HOLDREGE       CLOUDY    69  54  58 SE16G23   29.85F
HEBRON         MOCLDY    67  57  68 SE9       29.92F

...NEBRASKA PANHANDLE...

CITY           SKY/WX    TMP DP  RH WIND       PRES   REMARKS
CHADRON        LGT RAIN  56  55  97 NE16      29.63F
ALLIANCE       LGT RAIN  57  55  93 SE14      29.62F
SCOTTSBLUFF    HVY RAIN  52  51  97 W25G33    29.64F FOG
SIDNEY         LGT RAIN  52  49  89 W22G30    29.70S

...WESTERN AND NORTH CENTRAL NEBRASKA...

CITY           SKY/WX    TMP DP  RH WIND       PRES   REMARKS
VALENTINE      CLOUDY    68  51  54 SE20G29   29.76F
AINSWORTH      CLOUDY    66  51  58 SE18      29.80F
ONEILL         CLOUDY    66  60  81 SE15      29.88F
BROKEN BOW     CLOUDY    69  54  58 SE15G24   29.83F
IMPERIAL       MOCLDY    58  54  86 S13       29.77R
NORTH PLATTE   LGT RAIN  59  56  89 SE13G21   29.76F
MCCOOK         CLOUDY    60  58  92 S9        29.81S

...EASTERN NEBRASKA...

CITY           SKY/WX    TMP DP  RH WIND       PRES   REMARKS
NORFOLK        PTCLDY    63  61  93 E12       29.93F
SO SIOUX CITY  MOCLDY    61  58  90 E10       29.98S
TEKAMAH        CLEAR     63  60  90 E5        29.97S
COLUMBUS       MOCLDY    63  55  77 E6        29.94S
ALBION         MOCLDY    63  55  74 SE8       29.91F
OMAHA EPPLEY   PTCLDY    67  60  78 E6        29.96F
OFFUTT AFB     CLEAR     60  60  99 NE6       29.95S
MILLARD        PTCLDY    62  58  87 CALM      29.95F
LINCOLN        CLOUDY    65  56  72 S5        29.94F
NEBRASKA CITY  MOCLDY    63  54  73 S3        29.96F
BEATRICE       MOCLDY    68  58  70 SE7       29.95S
FALLS CITY     PTCLDY    64  57  78 SE5       29.95S

...NORTHERN KANSAS...

CITY           SKY/WX    TMP DP  RH WIND       PRES   REMARKS
GOODLAND       CLEAR     56  54  93 S17       29.83S
HILL CITY      CLOUDY    62  59  90 E9        29.82F
NORTON         LGT RAIN  61  54  77 E7        29.83
PHILLIPSBURG   MOCLDY    72  54  53 E12       29.86F
SMITH CENTER   CLOUDY    70  55  60 SE16      29.89F
BELOIT         CLOUDY    70  57  64 SE12      29.89F
HAYS           CLOUDY    68  54  60 SE12      29.88F
RUSSELL        CLOUDY    68  56  65 SE13      29.88F
CONCORDIA      MOCLDY    68  59  73 S12       29.92F
SALINA         MOCLDY    69  59  70 SE8       29.92F
TOPEKA         PTCLDY    67  61  81 E3        29.96R



USA.gov is the U.S. government's official web portal to all federal, state and local government web resources and services.